QPF
0.00 0.00 0.00 0.00 0.00 0.00 0.00 0.00 0.00 0.00 0.00 0.00 0.00 0.00 0.00 0.00 0.00 0.00 0.00 0.00 0.00 0.00 0.00 0.00 0.00 0.00 0.00 0.00 0.00 0.00 0.00 0.00 0.00 0.00 0.00 0.01 0.01 0.01 0.02 0.02 0.02 0.02 0.02
0.00 0.00 0.00 0.00 0.00 0.00 0.00 0.00 0.00 0.00 0.00 0.00 0.00 0.00 0.00 0.00 0.00 0.00 0.00 0.00 0.00 0.00 0.00 0.00 0.00 0.00 0.00 0.00 0.00 0.00 0.00 0.00 0.00 0.00 0.00 0.00 0.01 0.01 0.01 0.02 0.03 0.02 0.03
0.00 0.00 0.00 0.00 0.00 0.00 0.00 0.00 0.00 0.00 0.00 0.00 0.00 0.00 0.00 0.00 0.00 0.00 0.00 0.00 0.00 0.00 0.00 0.00 0.00 0.00 0.00 0.00 0.00 0.00 0.00 0.00 0.00 0.00 0.00 0.00 0.00 0.01 0.01 0.01 0.01 0.02 0.03
0.00 0.00 0.00 0.00 0.00 0.00 0.00 0.00 0.00 0.00 0.00 0.00 0.00 0.00 0.00 0.00 0.00 0.00 0.00 0.00 0.00 0.00 0.00 0.00 0.00 0.00 0.00 0.00 0.00 0.00 0.00 0.00 0.00 0.00 0.00 0.00 0.01 0.01 0.01 0.01 0.01 0.01 0.02
0.01 0.01 0.00 0.00 0.00 0.00 0.00 0.00 0.00 0.00 0.00 0.00 0.00 0.00 0.00 0.00 0.00 0.00 0.00 0.00 0.00 0.00 0.00 0.00 0.00 0.00 0.00 0.00 0.00 0.00 0.00 0.00 0.00 0.00 0.00 0.00 0.01 0.01 0.01 0.01 0.01 0.00 0.01
0.01 0.00 0.00 0.00 0.00 0.00 0.00 0.00 0.00 0.00 0.00 0.00 0.00 0.00 0.00 0.00 0.00 0.00 0.00 0.00 0.00 0.00 0.00 0.00 0.00 0.00 0.00 0.00 0.00 0.00 0.00 0.00 0.00 0.00 0.00 0.00 0.00 0.01 0.02 0.02 0.01 0.01 0.00
0.01 0.00 0.00 0.00 0.00 0.00 0.00 0.00 0.00 0.00 0.00 0.00 0.00 0.00 0.00 0.00 0.00 0.00 0.00 0.00 0.00 0.00 0.00 0.00 0.00 0.00 0.00 0.00 0.00 0.00 0.00 0.00 0.00 0.00 0.00 0.00 0.00 0.00 0.00 0.01 0.01 0.01 0.01
0.00 0.00 0.00 0.00 0.00 0.00 0.00 0.00 0.00 0.00 0.00 0.00 0.00 0.00 0.00 0.00 0.00 0.00 0.00 0.00 0.00 0.00 0.00 0.00 0.00 0.00 0.00 0.00 0.00 0.00 0.00 0.00 0.00 0.00 0.00 0.00 0.00 0.00 0.00 0.00 0.01 0.01 0.01
0.00 0.00 0.00 0.00 0.00 0.00 0.00 0.00 0.00 0.00 0.00 0.00 0.00 0.00 0.00 0.00 0.00 0.00 0.00 0.00 0.00 0.00 0.00 0.00 0.00 0.00 0.00 0.00 0.00 0.00 0.00 0.00 0.00 0.00 0.00 0.00 0.00 0.00 0.00 0.00 0.00 0.00 0.01
0.00 0.00 0.01 0.00 0.00 0.00 0.00 0.00 0.00 0.00 0.00 0.00 0.00 0.00 0.00 0.00 0.00 0.00 0.00 0.00 0.00 0.00 0.00 0.00 0.00 0.00 0.00 0.00 0.00 0.00 0.00 0.00 0.00 0.00 0.00 0.00 0.00 0.00 0.00 0.00 0.00 0.01 0.01
0.00 0.01 0.00 0.00 0.00 0.00 0.00 0.00 0.00 0.00 0.00 0.00 0.00 0.00 0.00 0.00 0.00 0.00 0.00 0.00 0.00 0.00 0.00 0.00 0.00 0.00 0.00 0.00 0.00 0.00 0.00 0.00 0.00 0.01 0.01 0.00 0.00 0.00 0.00 0.00 0.00 0.01 0.01
0.00 0.00 0.00 0.00 0.00 0.00 0.00 0.00 0.00 0.00 0.00 0.00 0.00 0.00 0.00 0.00 0.00 0.00 0.00 0.00 0.00 0.00 0.00 0.00 0.00 0.00 0.00 0.00 0.00 0.00 0.00 0.00 0.00 0.00 0.00 0.00 0.00 0.00 0.01 0.00 0.01 0.01 0.01
0.00 0.00 0.00 0.00 0.00 0.00 0.00 0.00 0.00 0.00 0.00 0.00 0.00 0.00 0.00 0.00 0.00 0.00 0.00 0.00 0.00 0.00 0.00 0.00 0.00 0.00 0.00 0.00 0.00 0.00 0.00 0.00 0.00 0.00 0.00 0.00 0.00 0.00 0.01 0.01 0.01 0.01 0.01
0.01 0.01 0.01 0.01 0.00 0.00 0.00 0.00 0.00 0.00 0.00 0.00 0.00 0.00 0.00 0.00 0.00 0.00 0.00 0.00 0.00 0.00 0.00 0.00 0.00 0.00 0.00 0.00 0.00 0.00 0.00 0.00 0.01 0.00 0.00 0.00 0.01 0.01 0.01 0.01 0.01 0.01 0.01
0.01 0.02 0.01 0.01 0.00 0.00 0.00 0.00 0.00 0.00 0.00 0.00 0.00 0.00 0.00 0.00 0.00 0.00 0.00 0.00 0.00 0.00 0.00 0.00 0.00 0.00 0.00 0.00 0.00 0.00 0.01 0.01 0.01 0.01 0.01 0.01 0.01 0.02 0.02 0.01 0.01 0.01 0.01
0.01 0.01 0.01 0.00 0.00 0.00 0.00 0.00 0.00 0.00 0.00 0.00 0.00 0.00 0.00 0.00 0.00 0.00 0.00 0.00 0.00 0.00 0.00 0.00 0.00 0.00 0.00 0.01 0.01 0.01 0.01 0.00 0.01 0.02 0.02 0.02 0.02 0.02 0.02 0.01 0.01 0.01 0.01
0.01 0.01 0.01 0.01 0.00 0.00 0.00 0.00 0.00 0.00 0.00 0.00 0.00 0.00 0.00 0.00 0.00 0.00 0.00 0.00 0.01 0.01 0.01 0.01 0.00 0.00 0.00 0.00 0.00 0.01 0.01 0.00 0.00 0.02 0.03 0.03 0.03 0.03 0.02 0.01 0.01 0.02 0.02
0.01 0.01 0.01 0.01 0.00 0.00 0.00 0.00 0.00 0.00 0.00 0.00 0.00 0.00 0.00 0.00 0.00 0.00 0.00 0.00 0.00 0.00 0.00 0.00 0.00 0.00 0.00 0.00 0.00 0.00 0.00 0.00 0.00 0.01 0.02 0.03 0.03 0.04 0.04 0.03 0.02 0.02 0.02
0.00 0.00 0.00 0.00 0.00 0.00 0.00 0.00 0.00 0.00 0.00 0.00 0.00 0.00 0.00 0.00 0.00 0.00 0.00 0.00 0.00 0.00 0.00 0.00 0.00 0.01 0.01 0.01 0.01 0.01 0.01 0.00 0.00 0.01 0.02 0.02 0.02 0.03 0.03 0.03 0.03 0.03 0.03
0.00 0.00 0.00 0.00 0.00 0.00 0.00 0.01 0.01 0.00 0.00 0.00 0.00 0.00 0.00 0.00 0.00 0.00 0.00 0.00 0.00 0.00 0.00 0.01 0.01 0.02 0.02 0.01 0.01 0.01 0.01 0.01 0.01 0.01 0.02 0.01 0.01 0.01 0.02 0.02 0.02 0.03 0.03
0.00 0.00 0.00 0.00 0.00 0.00 0.00 0.00 0.00 0.00 0.00 0.00 0.00 0.00 0.00 0.00 0.00 0.00 0.01 0.01 0.01 0.01 0.01 0.01 0.01 0.01 0.01 0.01 0.02 0.02 0.02 0.01 0.01 0.02 0.02 0.02 0.02 0.02 0.02 0.02 0.02 0.02 0.02
0.00 0.00 0.00 0.00 0.00 0.00 0.00 0.00 0.00 0.00 0.00 0.00 0.00 0.00 0.00 0.01 0.01 0.01 0.01 0.02 0.02 0.01 0.01 0.01 0.01 0.01 0.01 0.01 0.01 0.02 0.02 0.01 0.02 0.02 0.02 0.02 0.02 0.02 0.02 0.02 0.02 0.02 0.02
0.01 0.01 0.00 0.00 0.00 0.00 0.00 0.00 0.00 0.00 0.00 0.00 0.00 0.00 0.01 0.01 0.02 0.02 0.02 0.02 0.02 0.02 0.01 0.01 0.01 0.01 0.01 0.01 0.01 0.01 0.02 0.02 0.02 0.02 0.02 0.02 0.02 0.02 0.03 0.03 0.02 0.02 0.01
0.00 0.00 0.00 0.00 0.00 0.01 0.00 0.00 0.00 0.00 0.00 0.01 0.01 0.01 0.01 0.01 0.02 0.02 0.02 0.02 0.03 0.02 0.02 0.02 0.01 0.01 0.01 0.01 0.01 0.01 0.02 0.02 0.01 0.01 0.01 0.01 0.02 0.02 0.02 0.03 0.04 0.03 0.03
0.00 0.00 0.00 0.00 0.00 0.00 0.00 0.00 0.01 0.00 0.01 0.01 0.01 0.02 0.02 0.02 0.02 0.02 0.02 0.03 0.03 0.03 0.03 0.02 0.02 0.02 0.01 0.01 0.01 0.01 0.02 0.02 0.01 0.01 0.01 0.01 0.02 0.02 0.03 0.04 0.05 0.05 0.06
0.00 0.00 0.00 0.00 0.00 0.00 0.00 0.00 0.00 0.00 0.00 0.00 0.01 0.01 0.01 0.01 0.01 0.02 0.02 0.02 0.02 0.02 0.02 0.02 0.03 0.02 0.02 0.01 0.01 0.01 0.01 0.01 0.01 0.01 0.01 0.01 0.01 0.02 0.03 0.03 0.04 0.04 0.05
MSLP
1018.25 1018.64 1018.96 1019.21 1019.37 1019.47 1019.51 1019.53 1019.55 1019.60 1019.68 1019.79 1019.90 1020.00 1020.06 1020.08 1020.04 1019.97 1019.88 1019.79 1019.72 1019.70 1019.71 1019.76 1019.83 1019.89 1019.92 1019.91 1019.83 1019.69 1019.50 1019.27 1019.00 1018.72 1018.42 1018.12 1017.81 1017.51 1017.22 1016.94 1016.69 1016.49 1016.34
1018.24 1018.58 1018.87 1019.08 1019.23 1019.32 1019.38 1019.43 1019.48 1019.56 1019.67 1019.78 1019.89 1019.98 1020.01 1020.00 1019.93 1019.82 1019.70 1019.58 1019.50 1019.45 1019.44 1019.47 1019.51 1019.55 1019.57 1019.54 1019.47 1019.35 1019.18 1018.99 1018.76 1018.52 1018.26 1017.99 1017.70 1017.40 1017.10 1016.79 1016.51 1016.26 1016.06
1018.19 1018.51 1018.76 1018.94 1019.07 1019.16 1019.22 1019.29 1019.36 1019.46 1019.58 1019.70 1019.80 1019.86 1019.87 1019.83 1019.74 1019.61 1019.47 1019.34 1019.23 1019.17 1019.14 1019.15 1019.17 1019.18 1019.18 1019.13 1019.05 1018.93 1018.78 1018.61 1018.41 1018.20 1017.98 1017.73 1017.46 1017.17 1016.86 1016.55 1016.23 1015.95 1015.71
1018.07 1018.36 1018.59 1018.76 1018.87 1018.95 1019.02 1019.09 1019.18 1019.29 1019.40 1019.52 1019.60 1019.65 1019.64 1019.58 1019.47 1019.33 1019.18 1019.05 1018.94 1018.87 1018.83 1018.82 1018.82 1018.81 1018.77 1018.71 1018.61 1018.47 1018.32 1018.15 1017.97 1017.78 1017.57 1017.35 1017.10 1016.82 1016.52 1016.20 1015.88 1015.57 1015.29
1017.83 1018.12 1018.35 1018.51 1018.61 1018.69 1018.76 1018.84 1018.93 1019.04 1019.15 1019.25 1019.33 1019.35 1019.33 1019.25 1019.14 1019.00 1018.85 1018.73 1018.63 1018.56 1018.52 1018.49 1018.47 1018.43 1018.37 1018.27 1018.14 1017.98 1017.80 1017.62 1017.44 1017.26 1017.06 1016.86 1016.63 1016.37 1016.08 1015.77 1015.45 1015.13 1014.84
1017.47 1017.78 1018.01 1018.18 1018.29 1018.37 1018.45 1018.53 1018.63 1018.73 1018.84 1018.93 1018.98 1019.00 1018.96 1018.88 1018.76 1018.63 1018.49 1018.38 1018.29 1018.23 1018.19 1018.16 1018.12 1018.06 1017.96 1017.82 1017.65 1017.46 1017.25 1017.05 1016.85 1016.67 1016.48 1016.29 1016.07 1015.84 1015.57 1015.28 1014.97 1014.66 1014.36
1017.02 1017.35 1017.61 1017.79 1017.92 1018.02 1018.11 1018.20 1018.30 1018.40 1018.50 1018.57 1018.61 1018.61 1018.56 1018.47 1018.36 1018.23 1018.12 1018.02 1017.94 1017.89 1017.86 1017.82 1017.76 1017.67 1017.54 1017.36 1017.15 1016.92 1016.68 1016.45 1016.23 1016.03 1015.84 1015.65 1015.46 1015.25 1015.01 1014.75 1014.46 1014.17 1013.88
1016.52 1016.88 1017.16 1017.37 1017.53 1017.65 1017.76 1017.86 1017.97 1018.07 1018.15 1018.21 1018.24 1018.22 1018.16 1018.06 1017.95 1017.83 1017.72 1017.63 1017.57 1017.53 1017.50 1017.45 1017.38 1017.26 1017.10 1016.89 1016.64 1016.37 1016.10 1015.83 1015.59 1015.37 1015.17 1014.99 1014.81 1014.61 1014.40 1014.17 1013.92 1013.65 1013.38
1016.04 1016.42 1016.73 1016.96 1017.15 1017.30 1017.42 1017.54 1017.65 1017.75 1017.82 1017.86 1017.87 1017.83 1017.75 1017.64 1017.52 1017.41 1017.31 1017.23 1017.18 1017.14 1017.10 1017.05 1016.96 1016.83 1016.64 1016.40 1016.12 1015.82 1015.51 1015.22 1014.94 1014.71 1014.49 1014.30 1014.13 1013.95 1013.76 1013.55 1013.32 1013.09 1012.84
1015.59 1015.99 1016.32 1016.58 1016.79 1016.96 1017.11 1017.23 1017.34 1017.43 1017.49 1017.51 1017.49 1017.43 1017.33 1017.21 1017.09 1016.97 1016.87 1016.80 1016.75 1016.71 1016.68 1016.62 1016.52 1016.37 1016.16 1015.90 1015.59 1015.26 1014.93 1014.61 1014.31 1014.05 1013.82 1013.62 1013.43 1013.25 1013.07 1012.88 1012.68 1012.47 1012.25
1015.20 1015.61 1015.94 1016.21 1016.44 1016.62 1016.78 1016.91 1017.02 1017.09 1017.13 1017.13 1017.08 1016.99 1016.88 1016.74 1016.61 1016.49 1016.39 1016.33 1016.28 1016.25 1016.21 1016.14 1016.04 1015.88 1015.65 1015.38 1015.06 1014.71 1014.36 1014.02 1013.70 1013.41 1013.15 1012.93 1012.72 1012.53 1012.34 1012.16 1011.97 1011.78 1011.59
1014.84 1015.23 1015.56 1015.83 1016.06 1016.25 1016.41 1016.54 1016.63 1016.69 1016.71 1016.68 1016.60 1016.49 1016.36 1016.21 1016.07 1015.96 1015.86 1015.80 1015.76 1015.73 1015.70 1015.63 1015.52 1015.35 1015.12 1014.84 1014.51 1014.16 1013.79 1013.43 1013.10 1012.79 1012.51 1012.25 1012.02 1011.80 1011.59 1011.40 1011.20 1011.02 1010.86
1014.45 1014.82 1015.13 1015.39 1015.61 1015.80 1015.95 1016.06 1016.14 1016.18 1016.17 1016.12 1016.02 1015.89 1015.75 1015.60 1015.46 1015.35 1015.27 1015.22 1015.19 1015.17 1015.13 1015.07 1014.96 1014.79 1014.56 1014.27 1013.95 1013.59 1013.22 1012.86 1012.51 1012.18 1011.87 1011.59 1011.33 1011.08 1010.84 1010.62 1010.41 1010.23 1010.07
1013.99 1014.32 1014.61 1014.85 1015.05 1015.22 1015.36 1015.46 1015.52 1015.54 1015.51 1015.44 1015.33 1015.19 1015.04 1014.90 1014.77 1014.68 1014.61 1014.58 1014.56 1014.55 1014.52 1014.45 1014.34 1014.17 1013.95 1013.67 1013.34 1012.99 1012.63 1012.27 1011.91 1011.58 1011.25 1010.95 1010.65 1010.37 1010.10 1009.85 1009.62 1009.42 1009.26
1013.43 1013.72 1013.97 1014.18 1014.37 1014.52 1014.64 1014.73 1014.77 1014.77 1014.73 1014.64 1014.52 1014.39 1014.25 1014.12 1014.01 1013.94 1013.89 1013.87 1013.87 1013.86 1013.84 1013.77 1013.66 1013.49 1013.27 1012.99 1012.68 1012.35 1012.00 1011.65 1011.30 1010.97 1010.64 1010.32 1010.01 1009.71 1009.41 1009.13 1008.87 1008.65 1008.48
1012.76 1013.01 1013.22 1013.41 1013.57 1013.71 1013.82 1013.89 1013.92 1013.91 1013.86 1013.77 1013.65 1013.52 1013.40 1013.29 1013.20 1013.14 1013.12 1013.11 1013.11 1013.11 1013.08 1013.01 1012.89 1012.72 1012.50 1012.24 1011.94 1011.62 1011.30 1010.98 1010.65 1010.34 1010.03 1009.71 1009.40 1009.08 1008.77 1008.47 1008.19 1007.95 1007.76
1012.03 1012.23 1012.41 1012.57 1012.72 1012.84 1012.94 1013.01 1013.03 1013.02 1012.96 1012.87 1012.76 1012.64 1012.53 1012.43 1012.36 1012.31 1012.29 1012.29 1012.29 1012.27 1012.23 1012.15 1012.02 1011.84 1011.63 1011.37 1011.10 1010.81 1010.52 1010.24 1009.96 1009.68 1009.40 1009.11 1008.81 1008.50 1008.18 1007.87 1007.58 1007.32 1007.11
1011.30 1011.46 1011.60 1011.74 1011.87 1011.99 1012.08 1012.14 1012.17 1012.15 1012.10 1012.01 1011.90 1011.79 1011.68 1011.58 1011.51 1011.46 1011.43 1011.41 1011.39 1011.35 1011.28 1011.18 1011.03 1010.85 1010.64 1010.40 1010.15 1009.91 1009.66 1009.43 1009.20 1008.97 1008.74 1008.49 1008.22 1007.93 1007.63 1007.33 1007.03 1006.77 1006.55
1010.64 1010.76 1010.87 1010.99 1011.11 1011.22 1011.31 1011.37 1011.39 1011.37 1011.32 1011.23 1011.11 1010.99 1010.87 1010.76 1010.66 1010.58 1010.52 1010.46 1010.40 1010.32 1010.22 1010.09 1009.93 1009.74 1009.54 1009.32 1009.11 1008.91 1008.73 1008.56 1008.39 1008.23 1008.05 1007.86 1007.63 1007.38 1007.11 1006.82 1006.54 1006.27 1006.05
1010.12 1010.19 1010.28 1010.37 1010.48 1010.58 1010.66 1010.72 1010.73 1010.71 1010.64 1010.54 1010.41 1010.26 1010.10 1009.95 1009.81 1009.68 1009.56 1009.45 1009.33 1009.20 1009.05 1008.89 1008.71 1008.53 1008.34 1008.16 1008.00 1007.86 1007.74 1007.64 1007.55 1007.46 1007.35 1007.21 1007.04 1006.83 1006.59 1006.33 1006.06 1005.81 1005.59
1009.77 1009.79 1009.84 1009.91 1010.00 1010.08 1010.16 1010.20 1010.21 1010.17 1010.08 1009.95 1009.78 1009.58 1009.37 1009.16 1008.95 1008.74 1008.55 1008.36 1008.17 1007.99 1007.80 1007.61 1007.42 1007.25 1007.09 1006.96 1006.85 1006.78 1006.74 1006.72 1006.71 1006.68 1006.64 1006.56 1006.44 1006.28 1006.07 1005.84 1005.60 1005.36 1005.16
1009.56 1009.54 1009.55 1009.59 1009.66 1009.73 1009.79 1009.81 1009.79 1009.73 1009.60 1009.42 1009.20 1008.94 1008.66 1008.36 1008.06 1007.77 1007.49 1007.21 1006.96 1006.71 1006.49 1006.28 1006.10 1005.95 1005.84 1005.76 1005.73 1005.74 1005.78 1005.84 1005.90 1005.95 1005.96 1005.94 1005.86 1005.73 1005.56 1005.36 1005.14 1004.92 1004.73
1009.47 1009.40 1009.38 1009.39 1009.43 1009.47 1009.50 1009.50 1009.45 1009.34 1009.17 1008.94 1008.65 1008.31 1007.94 1007.55 1007.16 1006.77 1006.39 1006.04 1005.72 1005.43 1005.17 1004.96 1004.80 1004.70 1004.64 1004.64 1004.70 1004.79 1004.91 1005.05 1005.18 1005.29 1005.36 1005.37 1005.33 1005.22 1005.07 1004.89 1004.69 1004.49 1004.33
1009.43 1009.32 1009.26 1009.24 1009.25 1009.26 1009.26 1009.22 1009.13 1008.98 1008.75 1008.45 1008.09 1007.67 1007.21 1006.73 1006.25 1005.77 1005.31 1004.89 1004.51 1004.19 1003.93 1003.73 1003.61 1003.55 1003.57 1003.66 1003.80 1003.97 1004.18 1004.39 1004.58 1004.73 1004.84 1004.88 1004.85 1004.77 1004.63 1004.46 1004.27 1004.09 1003.94
1009.38 1009.24 1009.14 1009.10 1009.07 1009.06 1009.02 1008.94 1008.81 1008.60 1008.32 1007.96 1007.52 1007.03 1006.49 1005.93 1005.36 1004.81 1004.29 1003.81 1003.41 1003.07 1002.82 1002.65 1002.57 1002.58 1002.68 1002.84 1003.06 1003.32 1003.60 1003.86 1004.10 1004.29 1004.41 1004.47 1004.45 1004.37 1004.23 1004.06 1003.88 1003.71 1003.57
1009.28 1009.11 1009.00 1008.92 1008.88 1008.83 1008.76 1008.64 1008.47 1008.21 1007.87 1007.46 1006.96 1006.40 1005.80 1005.18 1004.55 1003.95 1003.38 1002.88 1002.46 1002.13 1001.90 1001.77 1001.75 1001.82 1001.99 1002.23 1002.52 1002.84 1003.16 1003.47 1003.73 1003.94 1004.07 1004.12 1004.10 1004.01 1003.87 1003.69 1003.51 1003.35 1003.22
Thickness
5701 5699 5696 5693 5690 5686 5683 5680 5676 5672 5668 5665 5661 5657 5654 5650 5647 5643 5639 5635 5632 5629 5626 5623 5620 5618 5615 5614 5612 5611 5610 5610 5612 5617 5617 5621 5624 5628 5633 5638 5643 5649 5654
5701 5697 5694 5691 5688 5684 5681 5677 5674 5669 5666 5662 5658 5654 5650 5647 5643 5638 5635 5631 5627 5624 5621 5617 5614 5612 5609 5607 5604 5603 5602 5602 5603 5606 5609 5611 5614 5618 5622 5627 5633 5639 5644
5700 5696 5692 5689 5686 5682 5678 5675 5671 5667 5663 5659 5654 5650 5647 5643 5639 5635 5630 5627 5623 5619 5615 5612 5609 5605 5603 5600 5598 5597 5596 5596 5595 5596 5599 5601 5604 5608 5612 5617 5622 5627 5633
5699 5695 5691 5687 5684 5680 5676 5672 5668 5664 5660 5656 5652 5648 5643 5639 5635 5631 5627 5623 5619 5615 5611 5607 5604 5600 5598 5595 5593 5591 5590 5588 5588 5588 5590 5592 5594 5598 5601 5606 5611 5616 5622
5697 5693 5690 5686 5682 5677 5674 5670 5666 5661 5658 5653 5649 5644 5640 5636 5632 5628 5623 5619 5614 5610 5607 5603 5599 5596 5594 5591 5589 5587 5584 5582 5581 5581 5582 5583 5586 5588 5591 5596 5601 5606 5611
5695 5692 5688 5683 5679 5675 5671 5667 5662 5658 5654 5650 5645 5641 5637 5634 5630 5625 5620 5615 5611 5606 5602 5599 5595 5592 5590 5587 5584 5582 5580 5577 5576 5575 5576 5576 5579 5580 5583 5586 5589 5594 5601
5694 5690 5686 5681 5677 5673 5668 5663 5659 5654 5650 5646 5642 5638 5634 5631 5626 5622 5617 5612 5607 5602 5598 5594 5591 5589 5585 5581 5579 5577 5575 5573 5571 5570 5570 5571 5572 5574 5575 5577 5580 5584 5590
5692 5688 5684 5679 5674 5669 5664 5660 5655 5651 5646 5642 5638 5634 5630 5627 5623 5618 5613 5608 5603 5599 5594 5590 5585 5583 5580 5576 5573 5571 5569 5568 5567 5566 5566 5566 5566 5566 5566 5568 5571 5575 5580
5690 5686 5681 5676 5671 5666 5661 5657 5652 5647 5643 5639 5635 5631 5626 5624 5620 5615 5609 5604 5599 5595 5591 5586 5582 5578 5575 5570 5567 5565 5564 5564 5563 5561 5561 5560 5560 5559 5559 5559 5562 5565 5572
5689 5685 5679 5674 5668 5663 5659 5654 5649 5644 5640 5635 5631 5627 5623 5619 5616 5611 5605 5599 5594 5591 5587 5583 5578 5574 5570 5565 5562 5560 5559 5559 5557 5556 5555 5554 5554 5554 5554 5554 5556 5559 5564
5688 5682 5676 5671 5666 5661 5656 5651 5645 5640 5635 5631 5627 5624 5620 5616 5612 5608 5602 5595 5591 5586 5582 5579 5575 5570 5565 5561 5557 5555 5554 5553 5550 5549 5548 5548 5549 5549 5550 5550 5551 5554 5558
5684 5678 5673 5668 5663 5658 5652 5647 5641 5636 5630 5626 5622 5619 5617 5613 5608 5604 5599 5593 5587 5581 5578 5575 5571 5566 5561 5556 5553 5552 5549 5545 5544 5543 5543 5543 5544 5545 5546 5547 5548 5549 5553
5678 5673 5668 5663 5658 5653 5648 5643 5637 5632 5626 5622 5617 5614 5612 5609 5605 5600 5595 5590 5584 5578 5575 5571 5566 5561 5556 5554 5551 5548 5545 5543 5541 5540 5540 5541 5541 5541 5541 5542 5544 5545 5547
5674 5668 5663 5658 5653 5648 5643 5638 5633 5628 5623 5619 5614 5611 5608 5604 5601 5597 5592 5586 5581 5575 5570 5566 5561 5557 5553 5550 5548 5546 5543 5540 5538 5538 5538 5538 5536 5536 5537 5537 5539 5541 5543
5668 5663 5658 5653 5649 5644 5639 5635 5631 5627 5622 5617 5613 5608 5604 5601 5599 5593 5587 5582 5576 5570 5564 5559 5556 5554 5551 5549 5547 5544 5541 5538 5536 5535 5534 5533 5533 5533 5533 5533 5534 5536 5538
5662 5657 5653 5648 5643 5638 5634 5630 5627 5623 5619 5613 5608 5604 5601 5596 5593 5587 5582 5576 5570 5564 5557 5555 5553 5550 5548 5546 5544 5542 5540 5537 5535 5533 5532 5531 5530 5530 5530 5530 5530 5532 5535
5658 5653 5648 5643 5638 5633 5628 5624 5621 5619 5615 5610 5605 5600 5595 5592 5587 5582 5577 5571 5565 5558 5553 5552 5550 5547 5545 5543 5541 5539 5538 5536 5534 5531 5530 5529 5529 5528 5528 5528 5528 5529 5531
5654 5648 5642 5637 5632 5628 5623 5619 5614 5611 5608 5606 5602 5597 5591 5587 5582 5577 5571 5565 5561 5555 5551 5549 5547 5545 5542 5541 5539 5537 5535 5534 5532 5530 5529 5528 5528 5527 5526 5526 5526 5527 5529
5646 5641 5636 5631 5626 5621 5616 5612 5608 5604 5600 5598 5595 5592 5587 5582 5577 5572 5565 5560 5558 5554 5550 5546 5544 5542 5540 5538 5536 5534 5533 5532 5531 5529 5528 5527 5526 5525 5525 5525 5525 5524 5524
5638 5634 5629 5624 5619 5614 5609 5605 5601 5597 5593 5590 5587 5584 5580 5575 5571 5567 5561 5556 5553 5550 5547 5544 5542 5540 5538 5536 5535 5533 5531 5530 5529 5528 5527 5525 5524 5523 5523 5523 5523 5523 5523
5629 5624 5620 5615 5611 5606 5601 5597 5593 5589 5585 5582 5579 5576 5570 5566 5563 5560 5556 5553 5549 5547 5544 5541 5540 5538 5536 5534 5532 5531 5529 5528 5527 5526 5524 5523 5522 5522 5521 5521 5521 5521 5522
5618 5614 5610 5605 5601 5597 5592 5588 5584 5580 5577 5574 5571 5568 5562 5558 5555 5553 5551 5549 5546 5544 5541 5539 5537 5535 5533 5532 5530 5528 5527 5526 5524 5523 5522 5521 5520 5519 5519 5519 5520 5520 5521
5607 5603 5599 5594 5590 5586 5582 5578 5574 5570 5567 5564 5560 5557 5554 5551 5548 5546 5544 5543 5541 5539 5537 5535 5533 5532 5530 5529 5527 5525 5523 5523 5521 5520 5519 5518 5518 5517 5517 5517 5518 5518 5519
5595 5591 5587 5583 5579 5575 5572 5568 5564 5560 5557 5553 5550 5547 5544 5542 5540 5538 5537 5536 5535 5533 5532 5530 5529 5528 5527 5525 5524 5522 5520 5518 5517 5516 5516 5515 5515 5515 5515 5515 5516 5517 5518
5583 5579 5575 5571 5567 5564 5560 5556 5553 5549 5546 5543 5540 5538 5536 5533 5532 5531 5530 5528 5527 5526 5526 5525 5524 5523 5523 5522 5520 5519 5516 5514 5512 5512 5512 5512 5512 5513 5513 5513 5514 5516 5517
5571 5567 5563 5559 5555 5551 5548 5545 5542 5539 5536 5533 5531 5529 5527 5525 5524 5523 5521 5520 5520 5519 5518 5518 5518 5517 5517 5517 5516 5514 5512 5511 5510 5509 5509 5510 5510 5511 5512 5513 5514 5515 5517